CZ-3B DEB, 40838

Orbit data source: Space-Track

CZ-3B DEB, 40838 is space debris in HEO originally from a launch on Mon, 19 Dec 2011 UTC launched from the Xichang Space Center, China (XSC). Debris objects in space refer to the collection of defunct objects orbiting the Earth. Examples of debris include non-operational satellites, rocket bodies, and fragments generated from explosions, collisions, or faulty payload assembly.

Not visible in the next 10 days
Identifier
40838, 2011-077T
Orbit
HEO
Country
Flag of CNCN / PRC
Related business
Manufacturer
CALT
Mission
Spacecraft
Bus & Motor
Unknown
Mass
Unknown
Launch date (UTC)
2011-12-19 (14 years ago)
Launch vehicle
Unknown
Launch site
Xichang Space Center, China (XSC)
Object type
Payload
Rocket body
Debris
Shape & HBR
Unknown shape, 0.2 m
Radar Cross Section
Medium (>0.1 m² and <1 m²)

Expand to show TLE details & history
Last TLE update: 23 hours ago

TLE from 23 hours ago
0 CZ-3B DEB
1 40838U 11077T   25290.31578243 -.00000215  00000-0  29060-2 0  9998
2 40838  26.7470 297.2838 7439919 127.8464 325.1507  1.95588759 75488
Epoch: 2025-10-17T07:34Z
TLE epoch observation values (Epoch: 2025-10-17T07:34:43.601Z)
Latitude
-0.00004°
Longitude
157.55258°
Altitude
15,761.868 km
Speed
4.61 km/s
True Right ascension
19h 49m 11s
True Declination
0° 00' 00"
Sunlit
Object was in daylight at epoch
Visualization orbit readout
Latitude
Unknown
Longitude
Unknown
Altitude
Unknown
Speed
Unknown
Apparent Right ascension
Unknown
Apparent Declination
Unknown
Sunlit
N/A
Visualization observer readout
Local Sidereal Time
01:09:38
Azimuth
Unknown
Elevation
Unknown
Doppler factor
Unknown
Orbital elements
Apogee altitude
40,731.725 km
Perigee altitude
537.323 km
Semi-major axis
27,012.661 km
Eccentricity
0.74399
Inclination
26.747°
RAAN
297.2838°
Arg. of periapsis
127.8464°
True anomaly
232.03755°
Mean anomaly
325.1507°
Eccentric anomaly
283.74359°
Mean motion
0.48887 °/min
Orbital period
736.39 mins
BSTAR
0.002906
Loading maneuver chart data...
Computing Atmospheric mass density...
Loading historical data...
Loading historical data...
Loading historical data...
Loading historical data...
Loading historical data...
Loading historical data...
Loading historical data...

Documentation

Showing up to 5 results
|